Find Starlink 1327

NORAD ID: 45555 Int'l Des: 2020-025 Owner: SPXS Country: US Constellation: starlink operational
LEOCIRCULAR

实时位置

正在加载3D地球...

关于 Starlink 1327

正在加载描述...

即将过境

Passes for default location (London). Set your location on the main map for personalized predictions.

高度历史

Loading altitude history...

两行轨道根数

1 45555U 20025AA 26124.30388426 .00098926 00000-0 10372-2 0 9991
2 45555 53.0423 156.1818 0005066 337.5957 22.4835 15.63611624334323
Epoch: May 4, 2026 • Age: 20 hours

当前状态

高度 380.2 km
速度 7.68 km/s
星下点 -23.55°S, 136.51°W
发射日期 Apr 22, 2020
运行时间 6 years
类型 internet

技术详情

分类 Payload
质量 260.00 kg
干质量 248.00 kg
总质量 260.00 kg
长度 0.20 m
直径 2.80 m
跨度 9.00 m
形状 Box + pan
制造商 SPXS
平台类型 Starlink
阶段状态 In Orbit
所有者/国家 SPXS/US

Most Searched